OAL792 LGTS-LGAV

Flight info

Callsign OAL792
Flight time N/A
Altitude 31000
Route LEKPO UL617 SKP UM749 ROPOX
Aircraft LJ35/M-SGHRWXY/SB1

Departure

Time 2026-05-05 01:17
Airport Thessaloniki Macedonia International Airport (LGTS)

Arrival

Time N/A
Airport Athens Eleftherios Venizelos International Airport (LGAV)
Time Latitude Longitude Altitude Speed Heading
2026-05-05 01:08 40.52324 22.97578 2 ft 0 kts 45°
2026-05-05 01:11 40.52325 22.97579 2 ft 1 kts 41°
2026-05-05 01:11 40.52316 22.97555 2 ft 4 kts 201°
2026-05-05 01:11 40.52298 22.97541 2 ft 2 kts 226°
2026-05-05 01:12 40.52276 22.97512 1 ft 6 kts 228°
2026-05-05 01:12 40.52256 22.97485 1 ft 0 kts 214°
2026-05-05 01:12 40.52249 22.97480 1 ft 2 kts 217°
2026-05-05 01:13 40.52273 22.97421 1 ft 14 kts 352°
2026-05-05 01:13 40.52226 22.97504 1 ft 14 kts 122°
2026-05-05 01:13 40.52171 22.97606 1 ft 13 kts 129°
2026-05-05 01:13 40.52111 22.97700 2 ft 12 kts 134°
2026-05-05 01:14 40.52052 22.97774 3 ft 10 kts 134°
2026-05-05 01:14 40.52004 22.97844 4 ft 10 kts 118°
2026-05-05 01:14 40.51981 22.97951 4 ft 17 kts 101°
2026-05-05 01:14 40.51937 22.98187 5 ft 34 kts 102°
2026-05-05 01:15 40.51869 22.98542 8 ft 46 kts 104°
2026-05-05 01:15 40.51820 22.98698 8 ft 8 kts 162°
2026-05-05 01:15 40.51763 22.98695 9 ft 8 kts 191°
2026-05-05 01:15 40.51707 22.98679 10 ft 8 kts 198°
2026-05-05 01:16 40.51687 22.98608 10 ft 10 kts 278°
2026-05-05 01:16 40.51722 22.98402 8 ft 43 kts 284°
2026-05-05 01:16 40.51837 22.97812 15 ft 84 kts 286°
2026-05-05 01:16 40.51985 22.97085 240 ft 86 kts 280°
2026-05-05 01:17 40.52105 22.96284 390 ft 96 kts 278°
2026-05-05 01:17 40.52159 22.95380 543 ft 100 kts 275°
2026-05-05 01:17 40.52187 22.94501 780 ft 96 kts 271°
2026-05-05 01:17 40.52272 22.93616 945 ft 98 kts 281°
2026-05-05 01:18 40.52433 22.92752 1113 ft 100 kts 284°
2026-05-05 01:18 40.52556 22.91835 1236 ft 103 kts 275°
2026-05-05 01:18 40.52587 22.90877 1295 ft 106 kts 269°
2026-05-05 01:18 40.52634 22.89927 1362 ft 105 kts 284°
2026-05-05 01:19 40.52777 22.88938 1295 ft 115 kts 284°
2026-05-05 01:19 40.53012 22.87927 1254 ft 118 kts 285°
2026-05-05 01:19 40.52910 22.86838 1179 ft 123 kts 244°
2026-05-05 01:19 40.52280 22.86123 1119 ft 126 kts 194°
2026-05-05 01:20 40.51463 22.86288 1146 ft 118 kts 142°
2026-05-05 01:20 40.51075 22.87145 1246 ft 106 kts 97°
2026-05-05 01:20 40.51008 22.88094 1310 ft 106 kts 88°
2026-05-05 01:20 40.50838 22.89052 1338 ft 108 kts 103°
2026-05-05 01:21 40.50609 22.89925 1532 ft 99 kts 106°
2026-05-05 01:21 40.50359 22.90768 1622 ft 102 kts 101°
2026-05-05 01:21 40.50098 22.91680 1678 ft 107 kts 105°
2026-05-05 01:21 40.49812 22.92595 1705 ft 112 kts 106°
2026-05-05 01:22 40.49479 22.93541 1748 ft 113 kts 110°
2026-05-05 01:22 40.49171 22.94485 1805 ft 112 kts 104°
2026-05-05 01:22 40.48873 22.95450 1823 ft 115 kts 106°
2026-05-05 01:22 40.48581 22.96420 1878 ft 113 kts 103°
2026-05-05 01:23 40.48327 22.97396 1914 ft 113 kts 99°
2026-05-05 01:23 40.48154 22.98414 1930 ft 113 kts 88°
2026-05-05 01:23 40.47944 22.99452 1884 ft 118 kts 101°
2026-05-05 01:23 40.47697 23.00424 1923 ft 111 kts 101°
2026-05-05 01:24 40.47480 23.01453 1758 ft 117 kts 97°
2026-05-05 01:24 40.47264 23.02457 1727 ft 113 kts 98°
2026-05-05 01:24 40.47216 23.03399 1750 ft 99 kts 65°
2026-05-05 01:24 40.47651 23.04054 1685 ft 97 kts 25°
2026-05-05 01:25 40.48273 23.04440 1635 ft 97 kts 18°
2026-05-05 01:25 40.48909 23.04726 1610 ft 97 kts 12°
2026-05-05 01:25 40.49581 23.04802 1535 ft 97 kts 351°
2026-05-05 01:25 40.50167 23.04395 1389 ft 97 kts 320°
2026-05-05 01:26 40.50580 23.03804 1272 ft 79 kts 306°
2026-05-05 01:26 40.50825 23.03167 1015 ft 80 kts 293°
2026-05-05 01:26 40.50943 23.02456 801 ft 76 kts 283°
2026-05-05 01:26 40.51067 23.01793 646 ft 74 kts 285°
2026-05-05 01:27 40.51196 23.01175 516 ft 66 kts 284°
2026-05-05 01:27 40.51309 23.00590 418 ft 67 kts 280°
2026-05-05 01:27 40.51415 22.99975 367 ft 71 kts 281°
2026-05-05 01:27 40.51543 22.99338 226 ft 70 kts 284°
2026-05-05 01:28 40.51664 22.98737 68 ft 65 kts 284°
2026-05-05 01:28 40.51759 22.98219 6 ft 49 kts 287°
2026-05-05 01:28 40.51825 22.97868 4 ft 27 kts 266°
2026-05-05 01:28 40.51865 22.97653 1 ft 21 kts 289°
2026-05-05 01:29 40.51941 22.97601 1 ft 11 kts 52°
2026-05-05 01:29 40.51988 22.97663 1 ft 7 kts 50°
2026-05-05 01:29 40.52011 22.97699 2 ft 2 kts 45°
2026-05-05 01:29 40.52024 22.97709 2 ft 2 kts 28°
2026-05-05 01:30 40.52060 22.97715 2 ft 11 kts 353°
2026-05-05 01:30 40.52142 22.97665 1 ft 12 kts 328°
2026-05-05 01:30 40.52199 22.97612 2 ft 7 kts 323°
2026-05-05 01:30 40.52240 22.97575 2 ft 6 kts 15°
2026-05-05 01:31 40.52264 22.97602 3 ft 2 kts 45°
2026-05-05 01:31 40.52278 22.97621 3 ft 1 kts 42°
2026-05-05 01:31 40.52279 22.97621 3 ft 0 kts 40°